| time (UTC) | temp C | wind direction | speed KPH | gust KPH | rain 1hr cm | rain 24hr cm | rain mn cm | humidity % | barometer mb |
| 20260901141008 | 13 | 205 | 1.6 | 3.2 | 0.00 | 0.00 | 0.00 | 89 | 1010.5 |
| 20260901140508 | 13 | 227 | 0.0 | 4.8 | 0.00 | 0.00 | 0.00 | 90 | 1010.4 |
| 20260901140017 | 13 | 229 | 0.0 | 4.8 | 0.00 | 0.00 | 0.00 | 90 | 1010.3 |
| 20260901135508 | 13 | 232 | 0.0 | 4.8 | 0.00 | 0.00 | 0.00 | 90 | 1010.3 |
| 20260901135012 | 13 | 215 | 0.0 | 6.4 | 0.00 | 0.00 | 0.00 | 90 | 1010.3 |
| 20260901134522 | 13 | 140 | 0.0 | 6.4 | 0.00 | 0.00 | 0.00 | 90 | 1010.3 |
| 20260901134011 | 13 | 218 | 1.6 | 6.4 | 0.00 | 0.00 | 0.00 | 90 | 1010.3 |
| 20260901133503 | 13 | 205 | 0.0 | 0.0 | 0.00 | 0.00 | 0.00 | 89 | 1010.3 |
| 20260901133007 | 13 | 213 | 0.0 | 6.4 | 0.00 | 0.00 | 0.00 | 89 | 1010.3 |
| 20260901132504 | 13 | 210 | 0.0 | 6.4 | 0.00 | 0.00 | 0.00 | 89 | 1010.3 |
| 20260901132004 | 13 | 202 | 0.0 | 4.8 | 0.00 | 0.00 | 0.00 | 89 | 1010.3 |
| 20260901131509 | 13 | 196 | 0.0 | 1.6 | 0.00 | 0.00 | 0.00 | 89 | 1010.3 |
| 20260901131004 | 13 | 186 | 0.0 | 0.0 | 0.00 | 0.00 | 0.00 | 89 | 1010.3 |
| 20260901130508 | 13 | 215 | 0.0 | 0.0 | 0.00 | 0.00 | 0.00 | 88 | 1010.2 |
| 20260901130011 | 13 | 215 | 0.0 | 0.0 | 0.00 | 0.00 | 0.00 | 88 | 1010.2 |
| 20260901125507 | 12 | 215 | 0.0 | 3.2 | 0.00 | 0.00 | 0.00 | 88 | 1010.1 |
| 20260901125009 | 12 | 224 | 0.0 | 3.2 | 0.00 | 0.00 | 0.00 | 88 | 1010.1 |
| 20260901124520 | 12 | 164 | 0.0 | 0.0 | 0.00 | 0.00 | 0.00 | 87 | 1010.1 |
| 20260901124012 | 12 | 5 | 0.0 | 0.0 | 0.00 | 0.00 | 0.00 | 87 | 1010.1 |
| 20260901123514 | 12 | 5 | 0.0 | 0.0 | 0.00 | 0.00 | 0.00 | 86 | 1010.0 |
| 20260901123024 | 12 | 5 | 0.0 | 0.0 | 0.00 | 0.00 | 0.00 | 86 | 1010.0 |
| 20260901122516 | 12 | 5 | 0.0 | 0.0 | 0.00 | 0.00 | 0.00 | 86 | 1009.9 |
| 20260901122003 | 12 | 5 | 0.0 | 0.0 | 0.00 | 0.00 | 0.00 | 86 | 1010.0 |
| 20260901121507 | 12 | 5 | 0.0 | 0.0 | 0.00 | 0.00 | 0.00 | 86 | 1010.0 |
| 20260901121006 | 12 | 5 | 0.0 | 0.0 | 0.00 | 0.00 | 0.00 | 86 | 1009.9 |
| 20260901120507 | 12 | 5 | 0.0 | 0.0 | 0.00 | 0.00 | 0.00 | 86 | 1009.9 |
| 20260901120015 | 12 | 5 | 0.0 | 0.0 | 0.00 | 0.00 | 0.00 | 86 | 1009.9 |
| 20260901115508 | 12 | 9 | 0.0 | 0.0 | 0.00 | 0.00 | 0.00 | 86 | 1009.8 |
| 20260901115013 | 12 | 5 | 0.0 | 0.0 | 0.00 | 0.00 | 0.00 | 86 | 1009.8 |
| 20260901114515 | 12 | 5 | 0.0 | 0.0 | 0.00 | 0.00 | 0.00 | 86 | 1009.7 |
| 20260901114012 | 12 | 5 | 0.0 | 0.0 | 0.00 | 0.00 | 0.00 | 86 | 1009.7 |
| 20260901113510 | 12 | 5 | 0.0 | 0.0 | 0.00 | 0.00 | 0.00 | 86 | 1009.6 |
| 20260901113025 | 12 | 5 | 0.0 | 0.0 | 0.00 | 0.00 | 0.00 | 87 | 1009.6 |
| 20260901112511 | 12 | 5 | 0.0 | 0.0 | 0.00 | 0.00 | 0.00 | 86 | 1009.6 |
| 20260901112015 | 12 | 5 | 0.0 | 0.0 | 0.00 | 0.00 | 0.00 | 86 | 1009.7 |
| 20260901111529 | 12 | 5 | 0.0 | 0.0 | 0.00 | 0.00 | 0.00 | 86 | 1009.6 |
| 20260901111019 | 12 | 5 | 0.0 | 0.0 | 0.00 | 0.00 | 0.00 | 86 | 1009.6 |
| 20260901110503 | 12 | 5 | 0.0 | 0.0 | 0.00 | 0.00 | 0.00 | 85 | 1009.6 |
| 20260901110010 | 12 | 5 | 0.0 | 0.0 | 0.00 | 0.00 | 0.00 | 85 | 1009.6 |
| 20260901105504 | 12 | 5 | 0.0 | 0.0 | 0.00 | 0.00 | 0.00 | 86 | 1009.6 |
| 20260901105010 | 12 | 5 | 0.0 | 0.0 | 0.00 | 0.00 | 0.00 | 86 | 1009.6 |
| 20260901104514 | 12 | 5 | 0.0 | 0.0 | 0.00 | 0.00 | 0.00 | 86 | 1009.6 |
| 20260901104008 | 12 | 5 | 0.0 | 0.0 | 0.00 | 0.00 | 0.00 | 86 | 1009.6 |
| 20260901103511 | 12 | 5 | 0.0 | 0.0 | 0.00 | 0.00 | 0.00 | 86 | 1009.6 |
| 20260901103017 | 12 | 5 | 0.0 | 0.0 | 0.00 | 0.00 | 0.00 | 86 | 1009.5 |
| 20260901102514 | 12 | 5 | 0.0 | 0.0 | 0.00 | 0.00 | 0.00 | 85 | 1009.5 |
| 20260901102014 | 13 | 5 | 0.0 | 0.0 | 0.00 | 0.00 | 0.00 | 85 | 1009.5 |
| 20260901101527 | 12 | 5 | 0.0 | 0.0 | 0.00 | 0.00 | 0.00 | 86 | 1009.5 |
| 20260901101018 | 12 | 5 | 0.0 | 0.0 | 0.00 | 0.00 | 0.00 | 86 | 1009.5 |
| 20260901100514 | 12 | 5 | 0.0 | 0.0 | 0.00 | 0.00 | 0.00 | 86 | 1009.5 |
| 20260901100027 | 13 | 5 | 0.0 | 0.0 | 0.00 | 0.00 | 0.00 | 85 | 1009.3 |
| 20260901095515 | 13 | 5 | 0.0 | 0.0 | 0.00 | 0.00 | 0.00 | 86 | 1009.3 |
| 20260901095014 | 12 | 5 | 0.0 | 0.0 | 0.00 | 0.00 | 0.00 | 85 | 1009.3 |
| 20260901094521 | 13 | 5 | 0.0 | 0.0 | 0.00 | 0.00 | 0.00 | 85 | 1009.3 |
| 20260901094007 | 13 | 5 | 0.0 | 0.0 | 0.00 | 0.00 | 0.00 | 84 | 1009.2 |
| 20260901093507 | 13 | 5 | 0.0 | 0.0 | 0.00 | 0.00 | 0.00 | 84 | 1009.2 |
| 20260901093018 | 13 | 5 | 0.0 | 0.0 | 0.00 | 0.00 | 0.00 | 84 | 1009.3 |
| 20260901092512 | 13 | 5 | 0.0 | 0.0 | 0.00 | 0.00 | 0.00 | 84 | 1009.3 |
| 20260901092015 | 13 | 5 | 0.0 | 0.0 | 0.00 | 0.00 | 0.00 | 84 | 1009.2 |
| 20260901091530 | 13 | 5 | 0.0 | 0.0 | 0.00 | 0.00 | 0.00 | 83 | 1009.2 |
| 20260901091011 | 13 | 5 | 0.0 | 0.0 | 0.00 | 0.00 | 0.00 | 83 | 1009.2 |
| 20260901090511 | 13 | 5 | 0.0 | 0.0 | 0.00 | 0.00 | 0.00 | 82 | 1009.2 |
| 20260901090027 | 13 | 5 | 0.0 | 0.0 | 0.00 | 0.00 | 0.00 | 83 | 1009.2 |
| 20260901085519 | 13 | 5 | 0.0 | 0.0 | 0.00 | 0.00 | 0.00 | 82 | 1009.2 |
| 20260901085015 | 13 | 5 | 0.0 | 0.0 | 0.00 | 0.00 | 0.00 | 81 | 1009.2 |
| 20260901084532 | 14 | 5 | 0.0 | 0.0 | 0.00 | 0.00 | 0.00 | 81 | 1009.1 |
| 20260901084020 | 14 | 5 | 0.0 | 0.0 | 0.00 | 0.00 | 0.00 | 81 | 1009.0 |
| 20260901083519 | 14 | 5 | 0.0 | 0.0 | 0.00 | 0.00 | 0.00 | 80 | 1009.1 |
| 20260901083014 | 14 | 5 | 0.0 | 0.0 | 0.00 | 0.00 | 0.00 | 80 | 1009.0 |
| 20260901082511 | 15 | 5 | 0.0 | 0.0 | 0.00 | 0.00 | 0.00 | 79 | 1009.1 |
| 20260901082011 | 15 | 5 | 0.0 | 0.0 | 0.00 | 0.00 | 0.00 | 79 | 1009.0 |
| 20260901081518 | 15 | 5 | 0.0 | 0.0 | 0.00 | 0.00 | 0.00 | 79 | 1009.0 |
| 20260901081011 | 15 | 5 | 0.0 | 0.0 | 0.00 | 0.00 | 0.00 | 79 | 1009.0 |
| 20260901080514 | 15 | 5 | 0.0 | 0.0 | 0.00 | 0.00 | 0.00 | 78 | 1008.9 |
| 20260901080025 | 15 | 5 | 0.0 | 0.0 | 0.00 | 0.00 | 0.00 | 76 | 1008.9 |
| 20260901075504 | 16 | 5 | 0.0 | 0.0 | 0.00 | 0.00 | 0.00 | 75 | 1008.9 |
| 20260901075004 | 16 | 5 | 0.0 | 0.0 | 0.00 | 0.00 | 0.00 | 75 | 1008.9 |
| 20260901074509 | 16 | 30 | 0.0 | 0.0 | 0.00 | 0.00 | 0.00 | 75 | 1008.8 |
| 20260901074003 | 16 | 30 | 0.0 | 0.0 | 0.00 | 0.00 | 0.00 | 75 | 1008.8 |
| 20260901073507 | 16 | 30 | 0.0 | 0.0 | 0.00 | 0.00 | 0.00 | 75 | 1008.8 |
| 20260901073019 | 16 | 30 | 0.0 | 3.2 | 0.00 | 0.00 | 0.00 | 75 | 1008.8 |
| 20260901072510 | 16 | 30 | 0.0 | 3.2 | 0.00 | 0.00 | 0.00 | 75 | 1008.9 |
| 20260901072011 | 16 | 34 | 0.0 | 3.2 | 0.00 | 0.00 | 0.00 | 75 | 1008.9 |
| 20260901071515 | 16 | 44 | 0.0 | 0.0 | 0.00 | 0.00 | 0.00 | 74 | 1008.9 |
| 20260901071014 | 16 | 46 | 0.0 | 1.6 | 0.00 | 0.00 | 0.00 | 74 | 1008.8 |
| 20260901070512 | 16 | 62 | 1.6 | 1.6 | 0.00 | 0.00 | 0.00 | 74 | 1008.8 |
| 20260901070007 | 16 | 69 | 0.0 | 3.2 | 0.00 | 0.00 | 0.00 | 74 | 1008.8 |
| 20260901065506 | 16 | 69 | 0.0 | 3.2 | 0.00 | 0.00 | 0.00 | 74 | 1008.8 |
| 20260901065004 | 16 | 69 | 0.0 | 3.2 | 0.00 | 0.00 | 0.00 | 74 | 1008.8 |
| 20260901064509 | 16 | 69 | 0.0 | 1.6 | 0.00 | 0.00 | 0.00 | 74 | 1008.7 |
| 20260901064004 | 16 | 11 | 0.0 | 0.0 | 0.00 | 0.00 | 0.00 | 74 | 1008.8 |
| 20260901063503 | 16 | 17 | 0.0 | 0.0 | 0.00 | 0.00 | 0.00 | 73 | 1008.8 |
| 20260901063007 | 16 | 19 | 0.0 | 0.0 | 0.00 | 0.00 | 0.00 | 73 | 1008.9 |
| 20260901062508 | 16 | 19 | 0.0 | 0.0 | 0.00 | 0.00 | 0.00 | 73 | 1008.8 |
| 20260901062008 | 17 | 19 | 0.0 | 0.0 | 0.00 | 0.00 | 0.00 | 73 | 1008.8 |
| 20260901061514 | 17 | 15 | 0.0 | 0.0 | 0.00 | 0.00 | 0.00 | 72 | 1008.9 |
| 20260901061012 | 17 | 15 | 0.0 | 0.0 | 0.00 | 0.00 | 0.00 | 72 | 1008.9 |
| 20260901060509 | 17 | 18 | 0.0 | 3.2 | 0.00 | 0.00 | 0.00 | 72 | 1008.9 |
| 20260901060022 | 17 | 5 | 0.0 | 3.2 | 0.00 | 0.00 | 0.00 | 71 | 1009.0 |
| 20260901055513 | 17 | 360 | 0.0 | 3.2 | 0.00 | 0.00 | 0.00 | 71 | 1008.9 |
| 20260901055012 | 17 | 352 | 1.6 | 4.8 | 0.00 | 0.00 | 0.00 | 70 | 1009.0 |
| 20260901054504 | 17 | 25 | 1.6 | 4.8 | 0.00 | 0.00 | 0.00 | 70 | 1009.0 |
| 20260901054004 | 17 | 30 | 0.0 | 3.2 | 0.00 | 0.00 | 0.00 | 70 | 1009.0 |
| 20260901053504 | 17 | 28 | 0.0 | 4.8 | 0.00 | 0.00 | 0.00 | 70 | 1009.0 |
| 20260901053012 | 17 | 53 | 1.6 | 4.8 | 0.00 | 0.00 | 0.00 | 70 | 1009.1 |
| 20260901052505 | 17 | 46 | 0.0 | 3.2 | 0.00 | 0.00 | 0.00 | 69 | 1009.1 |
| 20260901052007 | 17 | 49 | 0.0 | 4.8 | 0.00 | 0.00 | 0.00 | 69 | 1009.1 |
| 20260901051513 | 17 | 5 | 1.6 | 4.8 | 0.00 | 0.00 | 0.00 | 69 | 1009.1 |
| 20260901051008 | 17 | 345 | 0.0 | 4.8 | 0.00 | 0.00 | 0.00 | 68 | 1009.2 |
| 20260901050507 | 17 | 351 | 1.6 | 4.8 | 0.00 | 0.00 | 0.00 | 68 | 1009.2 |
| 20260901050016 | 17 | 352 | 0.0 | 4.8 | 0.00 | 0.00 | 0.00 | 68 | 1009.1 |
| 20260901045513 | 17 | 49 | 1.6 | 3.2 | 0.00 | 0.00 | 0.00 | 68 | 1009.1 |
| 20260901045012 | 17 | 5 | 1.6 | 3.2 | 0.00 | 0.00 | 0.00 | 68 | 1009.1 |
| 20260901044523 | 17 | 11 | 1.6 | 6.4 | 0.00 | 0.00 | 0.00 | 68 | 1009.2 |
| 20260901044012 | 17 | 343 | 1.6 | 6.4 | 0.00 | 0.00 | 0.00 | 68 | 1009.2 |
| 20260901043516 | 17 | 342 | 1.6 | 4.8 | 0.00 | 0.00 | 0.00 | 68 | 1009.2 |
| 20260901043006 | 17 | 346 | 0.0 | 0.0 | 0.00 | 0.00 | 0.00 | 68 | 1009.1 |
| 20260901042504 | 17 | 346 | 0.0 | 3.2 | 0.00 | 0.00 | 0.00 | 68 | 1009.1 |
| 20260901042005 | 17 | 346 | 0.0 | 3.2 | 0.00 | 0.00 | 0.00 | 68 | 1009.2 |
| 20260901041509 | 17 | 23 | 0.0 | 3.2 | 0.00 | 0.00 | 0.00 | 68 | 1009.1 |
| 20260901041010 | 17 | 5 | 0.0 | 3.2 | 0.00 | 0.00 | 0.00 | 68 | 1009.1 |
| 20260901040509 | 17 | 5 | 0.0 | 3.2 | 0.00 | 0.00 | 0.00 | 68 | 1009.1 |
| 20260901040019 | 18 | 5 | 0.0 | 3.2 | 0.00 | 0.00 | 0.00 | 67 | 1008.9 |
| 20260901035515 | 18 | 5 | 0.0 | 3.2 | 0.00 | 0.00 | 0.00 | 66 | 1008.8 |
| 20260901035013 | 18 | 5 | 0.0 | 4.8 | 0.00 | 0.00 | 0.00 | 65 | 1008.7 |
| 20260901034525 | 18 | 5 | 1.6 | 4.8 | 0.00 | 0.00 | 0.00 | 65 | 1008.6 |
| 20260901034014 | 18 | 26 | 1.6 | 6.4 | 0.00 | 0.00 | 0.00 | 65 | 1008.5 |
| 20260901033511 | 18 | 339 | 0.0 | 6.4 | 0.00 | 0.00 | 0.00 | 64 | 1008.5 |
| 20260901033043 | 18 | 352 | 3.2 | 6.4 | 0.00 | 0.00 | 0.00 | 64 | 1008.4 |
| 20260901032514 | 18 | 21 | 1.6 | 3.2 | 0.00 | 0.00 | 0.00 | 64 | 1008.4 |
| 20260901032016 | 18 | 360 | 0.0 | 3.2 | 0.00 | 0.00 | 0.00 | 64 | 1008.3 |
| 20260901031512 | 18 | 360 | 0.0 | 3.2 | 0.00 | 0.00 | 0.00 | 63 | 1008.3 |
| 20260901031007 | 19 | 360 | 0.0 | 4.8 | 0.00 | 0.00 | 0.00 | 63 | 1008.3 |
| 20260901030509 | 19 | 317 | 0.0 | 6.4 | 0.00 | 0.00 | 0.00 | 63 | 1008.3 |
| 20260901030014 | 19 | 312 | 3.2 | 6.4 | 0.00 | 0.00 | 0.00 | 62 | 1008.4 |
| 20260901025507 | 19 | 5 | 1.6 | 6.4 | 0.00 | 0.00 | 0.00 | 62 | 1008.3 |
| 20260901025011 | 20 | 30 | 1.6 | 8.0 | 0.00 | 0.00 | 0.00 | 61 | 1008.3 |
| 20260901024525 | 20 | 62 | 0.0 | 8.0 | 0.00 | 0.00 | 0.00 | 60 | 1008.4 |
| 20260901024012 | 20 | 334 | 3.2 | 8.0 | 0.00 | 0.00 | 0.00 | 59 | 1008.4 |
| 20260901023514 | 20 | 44 | 1.6 | 12.9 | 0.00 | 0.00 | 0.00 | 58 | 1008.4 |
| 20260901023032 | 20 | 42 | 3.2 | 12.9 | 0.00 | 0.00 | 0.00 | 58 | 1008.5 |
| 20260901022511 | 20 | 23 | 3.2 | 6.4 | 0.00 | 0.00 | 0.00 | 57 | 1008.6 |
| 20260901022018 | 20 | 26 | 3.2 | 6.4 | 0.00 | 0.00 | 0.00 | 56 | 1008.5 |
| 20260901021527 | 20 | 9 | 1.6 | 4.8 | 0.00 | 0.00 | 0.00 | 58 | 1008.5 |
| 20260901021016 | 20 | 332 | 1.6 | 4.8 | 0.00 | 0.00 | 0.00 | 59 | 1008.6 |
| 20260901020519 | 20 | 307 | 1.6 | 4.8 | 0.00 | 0.00 | 0.00 | 59 | 1008.6 |
| 20260901020008 | 20 | 309 | 0.0 | 9.7 | 0.00 | 0.00 | 0.00 | 59 | 1008.7 |
| 20260901015508 | 20 | 9 | 3.2 | 9.7 | 0.00 | 0.00 | 0.00 | 58 | 1008.7 |
| 20260901015007 | 20 | 320 | 3.2 | 8.0 | 0.00 | 0.00 | 0.00 | 59 | 1008.7 |
| 20260901014513 | 21 | 352 | 3.2 | 8.0 | 0.00 | 0.00 | 0.00 | 60 | 1008.6 |
| 20260901014010 | 21 | 17 | 1.6 | 8.0 | 0.00 | 0.00 | 0.00 | 60 | 1008.5 |
| 20260901013510 | 21 | 349 | 0.0 | 8.0 | 0.00 | 0.00 | 0.00 | 60 | 1008.5 |
| 20260901013018 | 21 | 304 | 1.6 | 11.3 | 0.00 | 0.00 | 0.00 | 59 | 1008.6 |
| 20260901012514 | 21 | 311 | 3.2 | 11.3 | 0.00 | 0.00 | 0.00 | 59 | 1008.6 |
| 20260901012015 | 21 | 347 | 3.2 | 11.3 | 0.00 | 0.00 | 0.00 | 59 | 1008.6 |
| 20260901011524 | 21 | 350 | 3.2 | 12.9 | 0.00 | 0.00 | 0.00 | 59 | 1008.6 |
| 20260901011016 | 21 | 285 | 3.2 | 12.9 | 0.00 | 0.00 | 0.00 | 58 | 1008.5 |
| 20260901010516 | 21 | 29 | 3.2 | 12.9 | 0.00 | 0.00 | 0.00 | 58 | 1008.6 |
| 20260901010037 | 21 | 311 | 3.2 | 11.3 | 0.00 | 0.00 | 0.00 | 58 | 1008.6 |
| 20260901005514 | 21 | 321 | 3.2 | 11.3 | 0.00 | 0.00 | 0.00 | 57 | 1008.6 |
| 20260901005019 | 21 | 314 | 1.6 | 12.9 | 0.00 | 0.00 | 0.00 | 56 | 1008.6 |
| 20260901004516 | 22 | 22 | 3.2 | 12.9 | 0.00 | 0.00 | 0.00 | 56 | 1008.6 |
| 20260901004013 | 22 | 310 | 4.8 | 12.9 | 0.00 | 0.00 | 0.00 | 55 | 1008.7 |
| 20260901003508 | 22 | 315 | 3.2 | 12.9 | 0.00 | 0.00 | 0.00 | 54 | 1008.6 |
| 20260901003017 | 22 | 300 | 4.8 | 14.5 | 0.00 | 0.00 | 0.00 | 55 | 1008.6 |
| 20260901002508 | 22 | 348 | 3.2 | 14.5 | 0.00 | 0.00 | 0.00 | 55 | 1008.7 |
| 20260901002005 | 22 | 317 | 3.2 | 9.7 | 0.00 | 0.00 | 0.00 | 54 | 1008.7 |
| 20260901001510 | 22 | 352 | 1.6 | 9.7 | 0.00 | 0.00 | 0.00 | 54 | 1008.8 |
| 20260901001003 | 23 | 279 | 3.2 | 8.0 | 0.00 | 0.00 | 0.00 | 53 | 1008.8 |
| 20260901000503 | 22 | 351 | 3.2 | 8.0 | 0.00 | 0.00 | 0.00 | 53 | 1008.9 |
| 20260901000006 | 23 | 360 | 1.6 | 6.4 | 0.00 | 0.00 | 0.00 | 51 | 1008.8 |
| 20260831235505 | 23 | 10 | 1.6 | 12.9 | 0.00 | 0.00 | 0.00 | 51 | 1008.9 |
| 20260831235006 | 23 | 34 | 4.8 | 12.9 | 0.00 | 0.00 | 0.00 | 50 | 1008.9 |
| 20260831234526 | 23 | 315 | 6.4 | 12.9 | 0.00 | 0.00 | 0.00 | 50 | 1009.0 |
| 20260831234008 | 23 | 352 | 3.2 | 6.4 | 0.00 | 0.00 | 0.00 | 51 | 1009.0 |
| 20260831233512 | 23 | 53 | 3.2 | 6.4 | 0.00 | 0.00 | 0.00 | 51 | 1009.1 |
| 20260831233017 | 23 | 39 | 1.6 | 6.4 | 0.00 | 0.00 | 0.00 | 51 | 1009.1 |
| 20260831232512 | 23 | 288 | 3.2 | 14.5 | 0.00 | 0.00 | 0.00 | 49 | 1009.1 |
| 20260831232012 | 23 | 300 | 4.8 | 14.5 | 0.00 | 0.00 | 0.00 | 49 | 1009.1 |
| 20260831231503 | 23 | 348 | 4.8 | 12.9 | 0.00 | 0.00 | 0.00 | 47 | 1009.2 |
| 20260831231003 | 23 | 321 | 6.4 | 12.9 | 0.00 | 0.00 | 0.00 | 48 | 1009.2 |
| 20260831230506 | 23 | 360 | 3.2 | 16.1 | 0.00 | 0.00 | 0.00 | 48 | 1009.2 |
| 20260831230004 | 23 | 317 | 4.8 | 16.1 | 0.00 | 0.00 | 0.00 | 48 | 1009.2 |
| 20260831225503 | 23 | 263 | 8.0 | 16.1 | 0.00 | 0.00 | 0.00 | 49 | 1009.3 |
| 20260831225006 | 23 | 309 | 4.8 | 14.5 | 0.00 | 0.00 | 0.00 | 49 | 1009.4 |
| 20260831224508 | 23 | 347 | 4.8 | 14.5 | 0.00 | 0.00 | 0.00 | 50 | 1009.4 |
| 20260831224008 | 22 | 9 | 1.6 | 17.7 | 0.00 | 0.00 | 0.00 | 51 | 1009.4 |
| 20260831223508 | 22 | 18 | 6.4 | 16.1 | 0.00 | 0.00 | 0.00 | 49 | 1009.5 |
| 20260831223012 | 23 | 292 | 6.4 | 14.5 | 0.00 | 0.00 | 0.00 | 49 | 1009.5 |
| 20260831222510 | 22 | 261 | 6.4 | 14.5 | 0.00 | 0.00 | 0.00 | 53 | 1009.6 |
| 20260831222015 | 22 | 5 | 6.4 | 14.5 | 0.00 | 0.00 | 0.00 | 52 | 1009.6 |
| 20260831221525 | 22 | 327 | 6.4 | 16.1 | 0.00 | 0.00 | 0.00 | 54 | 1009.7 |
| 20260831221014 | 22 | 347 | 6.4 | 16.1 | 0.00 | 0.00 | 0.00 | 52 | 1009.8 |
| 20260831220514 | 22 | 311 | 4.8 | 12.9 | 0.00 | 0.00 | 0.00 | 53 | 1010.0 |
| 20260831220010 | 22 | 327 | 4.8 | 12.9 | 0.00 | 0.00 | 0.00 | 52 | 1010.0 |
| 20260831215503 | 22 | 182 | 6.4 | 17.7 | 0.00 | 0.00 | 0.00 | 55 | 1010.2 |
| 20260831215005 | 22 | 254 | 6.4 | 17.7 | 0.00 | 0.00 | 0.00 | 56 | 1010.2 |
| 20260831214507 | 22 | 281 | 3.2 | 9.7 | 0.00 | 0.00 | 0.00 | 56 | 1010.3 |
| 20260831214003 | 22 | 280 | 4.8 | 12.9 | 0.00 | 0.00 | 0.00 | 55 | 1010.3 |
| 20260831213508 | 22 | 248 | 3.2 | 12.9 | 0.00 | 0.00 | 0.00 | 56 | 1010.4 |
| 20260831213027 | 22 | 278 | 6.4 | 12.9 | 0.00 | 0.00 | 0.00 | 56 | 1010.5 |
| 20260831212508 | 21 | 307 | 4.8 | 11.3 | 0.00 | 0.00 | 0.00 | 56 | 1010.5 |
| 20260831212014 | 21 | 294 | 4.8 | 17.7 | 0.00 | 0.00 | 0.00 | 55 | 1010.6 |
| 20260831211516 | 22 | 275 | 3.2 | 17.7 | 0.00 | 0.00 | 0.00 | 55 | 1010.6 |
| 20260831211011 | 22 | 19 | 6.4 | 14.5 | 0.00 | 0.00 | 0.00 | 55 | 1010.6 |
| 20260831210510 | 22 | 307 | 6.4 | 16.1 | 0.00 | 0.00 | 0.00 | 55 | 1010.7 |
| 20260831210023 | 22 | 67 | 4.8 | 16.1 | 0.00 | 0.00 | 0.00 | 55 | 1010.7 |
| 20260831205514 | 22 | 316 | 4.8 | 12.9 | 0.00 | 0.00 | 0.00 | 56 | 1010.8 |
| 20260831205016 | 21 | 275 | 4.8 | 12.9 | 0.00 | 0.00 | 0.00 | 57 | 1010.8 |
| 20260831204504 | 21 | 234 | 4.8 | 16.1 | 0.00 | 0.00 | 0.00 | 57 | 1010.9 |
| 20260831204008 | 21 | 294 | 8.0 | 12.9 | 0.00 | 0.00 | 0.00 | 56 | 1011.0 |
| 20260831203503 | 21 | 5 | 3.2 | 9.7 | 0.00 | 0.00 | 0.00 | 57 | 1011.1 |
| 20260831203007 | 21 | 5 | 3.2 | 9.7 | 0.00 | 0.00 | 0.00 | 57 | 1011.1 |
| 20260831202507 | 22 | 292 | 4.8 | 9.7 | 0.00 | 0.00 | 0.00 | 56 | 1011.1 |
| 20260831202008 | 22 | 11 | 3.2 | 9.7 | 0.00 | 0.00 | 0.00 | 56 | 1011.2 |
| 20260831201517 | 21 | 38 | 3.2 | 11.3 | 0.00 | 0.00 | 0.00 | 56 | 1011.3 |
| 20260831201008 | 22 | 22 | 6.4 | 11.3 | 0.00 | 0.00 | 0.00 | 56 | 1011.4 |
| 20260831200510 | 22 | 17 | 3.2 | 9.7 | 0.00 | 0.00 | 0.00 | 58 | 1011.4 |
| 20260831200030 | 21 | 45 | 4.8 | 12.9 | 0.00 | 0.00 | 0.00 | 58 | 1011.5 |
| 20260831195513 | 21 | 286 | 8.0 | 12.9 | 0.00 | 0.00 | 0.00 | 58 | 1011.6 |
| 20260831195016 | 21 | 352 | 6.4 | 17.7 | 0.00 | 0.00 | 0.00 | 60 | 1011.6 |
| 20260831194527 | 20 | 352 | 4.8 | 17.7 | 0.00 | 0.00 | 0.00 | 60 | 1011.7 |
| 20260831194016 | 20 | 35 | 8.0 | 16.1 | 0.00 | 0.00 | 0.00 | 61 | 1011.8 |
| 20260831193516 | 21 | 37 | 11.3 | 16.1 | 0.00 | 0.00 | 0.00 | 60 | 1011.9 |
| 20260831193011 | 20 | 296 | 4.8 | 20.9 | 0.00 | 0.00 | 0.00 | 62 | 1011.9 |
| 20260831192507 | 20 | 5 | 3.2 | 20.9 | 0.00 | 0.00 | 0.00 | 63 | 1011.9 |
| 20260831192007 | 20 | 45 | 6.4 | 16.1 | 0.00 | 0.00 | 0.00 | 62 | 1012.0 |
| 20260831191510 | 20 | 28 | 8.0 | 16.1 | 0.00 | 0.00 | 0.00 | 62 | 1012.2 |
| 20260831191008 | 20 | 352 | 3.2 | 9.7 | 0.00 | 0.00 | 0.00 | 62 | 1012.3 |
| 20260831190509 | 20 | 49 | 6.4 | 12.9 | 0.00 | 0.00 | 0.00 | 60 | 1012.3 |
| 20260831190018 | 20 | 350 | 4.8 | 12.9 | 0.00 | 0.00 | 0.00 | 60 | 1012.4 |
| 20260831185514 | 20 | 25 | 1.6 | 14.5 | 0.00 | 0.00 | 0.00 | 62 | 1012.6 |
| 20260831185014 | 20 | 352 | 8.0 | 14.5 | 0.00 | 0.00 | 0.00 | 62 | 1012.6 |
| 20260831184531 | 19 | 319 | 4.8 | 14.5 | 0.00 | 0.00 | 0.00 | 66 | 1012.6 |
| 20260831184016 | 18 | 350 | 3.2 | 12.9 | 0.00 | 0.00 | 0.00 | 67 | 1012.6 |
| 20260831183517 | 18 | 308 | 6.4 | 12.9 | 0.00 | 0.00 | 0.00 | 67 | 1012.6 |
| 20260831183027 | 18 | 276 | 4.8 | 11.3 | 0.00 | 0.00 | 0.00 | 67 | 1012.7 |
| 20260831182517 | 18 | 322 | 4.8 | 12.9 | 0.00 | 0.00 | 0.00 | 67 | 1012.8 |
| 20260831182018 | 18 | 255 | 3.2 | 12.9 | 0.00 | 0.00 | 0.00 | 68 | 1012.8 |
| 20260831181512 | 18 | 320 | 4.8 | 12.9 | 0.00 | 0.00 | 0.00 | 68 | 1012.8 |
| 20260831181011 | 18 | 255 | 3.2 | 11.3 | 0.00 | 0.00 | 0.00 | 69 | 1012.9 |
| 20260831180510 | 18 | 313 | 4.8 | 12.9 | 0.00 | 0.00 | 0.00 | 69 | 1012.9 |
| 20260831180017 | 18 | 352 | 6.4 | 12.9 | 0.00 | 0.00 | 0.00 | 66 | 1013.0 |
| 20260831175511 | 18 | 352 | 3.2 | 12.9 | 0.00 | 0.00 | 0.00 | 64 | 1013.0 |
| 20260831175012 | 18 | 322 | 4.8 | 12.9 | 0.00 | 0.00 | 0.00 | 65 | 1013.0 |
| 20260831174522 | 18 | 20 | 3.2 | 8.0 | 0.00 | 0.00 | 0.00 | 66 | 1013.1 |
| 20260831174017 | 18 | 30 | 4.8 | 12.9 | 0.00 | 0.00 | 0.00 | 66 | 1013.1 |
| 20260831173515 | 18 | 50 | 3.2 | 12.9 | 0.00 | 0.00 | 0.00 | 67 | 1013.2 |
| 20260831173027 | 18 | 327 | 3.2 | 9.7 | 0.00 | 0.00 | 0.00 | 69 | 1013.3 |
| 20260831172516 | 18 | 24 | 4.8 | 9.7 | 0.00 | 0.00 | 0.00 | 69 | 1013.3 |
| 20260831172017 | 17 | 83 | 3.2 | 11.3 | 0.00 | 0.00 | 0.00 | 71 | 1013.3 |
| 20260831171533 | 17 | 32 | 3.2 | 11.3 | 0.00 | 0.00 | 0.00 | 71 | 1013.3 |
| 20260831171022 | 17 | 352 | 4.8 | 11.3 | 0.00 | 0.00 | 0.00 | 72 | 1013.4 |
| 20260831170519 | 17 | 38 | 4.8 | 11.3 | 0.00 | 0.00 | 0.00 | 72 | 1013.4 |
| 20260831170017 | 17 | 323 | 3.2 | 8.0 | 0.00 | 0.00 | 0.00 | 72 | 1013.4 |
| 20260831165511 | 16 | 28 | 3.2 | 9.7 | 0.00 | 0.00 | 0.00 | 73 | 1013.4 |
| 20260831165009 | 16 | 57 | 4.8 | 14.5 | 0.00 | 0.00 | 0.00 | 73 | 1013.5 |
| 20260831164518 | 16 | 103 | 3.2 | 14.5 | 0.00 | 0.00 | 0.00 | 73 | 1013.6 |
| 20260831164014 | 16 | 345 | 6.4 | 14.5 | 0.00 | 0.00 | 0.00 | 75 | 1013.6 |
| 20260831163514 | 16 | 13 | 6.4 | 14.5 | 0.00 | 0.00 | 0.00 | 75 | 1013.6 |
| 20260831163025 | 16 | 340 | 4.8 | 14.5 | 0.00 | 0.00 | 0.00 | 76 | 1013.6 |
| 20260831162512 | 16 | 71 | 4.8 | 9.7 | 0.00 | 0.00 | 0.00 | 77 | 1013.7 |
| 20260831162016 | 16 | 348 | 4.8 | 9.7 | 0.00 | 0.00 | 0.00 | 79 | 1013.8 |
| 20260831161531 | 16 | 9 | 4.8 | 8.0 | 0.00 | 0.00 | 0.00 | 79 | 1013.8 |
| 20260831161014 | 15 | 342 | 3.2 | 12.9 | 0.00 | 0.00 | 0.00 | 80 | 1013.9 |
| 20260831160518 | 15 | 348 | 8.0 | 12.9 | 0.00 | 0.00 | 0.00 | 80 | 1013.9 |
| 20260831160042 | 15 | 352 | 1.6 | 8.0 | 0.00 | 0.00 | 0.00 | 82 | 1013.9 |
| 20260831155519 | 15 | 19 | 3.2 | 12.9 | 0.00 | 0.00 | 0.00 | 82 | 1013.9 |
| 20260831155016 | 15 | 16 | 3.2 | 14.5 | 0.00 | 0.00 | 0.00 | 84 | 1014.0 |
| 20260831154541 | 15 | 338 | 8.0 | 14.5 | 0.00 | 0.00 | 0.00 | 84 | 1014.0 |
| 20260831154013 | 14 | 19 | 3.2 | 11.3 | 0.00 | 0.00 | 0.00 | 85 | 1014.1 |
| 20260831153516 | 14 | 352 | 3.2 | 12.9 | 0.00 | 0.00 | 0.00 | 86 | 1014.1 |
| 20260831153044 | 13 | 340 | 8.0 | 12.9 | 0.00 | 0.00 | 0.00 | 86 | 1014.1 |
| 20260831152506 | 13 | 65 | 3.2 | 11.3 | 0.00 | 0.00 | 0.00 | 86 | 1014.2 |
| 20260831152006 | 13 | 324 | 6.4 | 9.7 | 0.00 | 0.00 | 0.00 | 86 | 1014.2 |
| 20260831151506 | 13 | 33 | 3.2 | 8.0 | 0.00 | 0.00 | 0.00 | 86 | 1014.3 |
| 20260831151003 | 13 | 26 | 3.2 | 6.4 | 0.00 | 0.00 | 0.00 | 87 | 1014.4 |
| 20260831150505 | 13 | 360 | 0.0 | 4.8 | 0.00 | 0.00 | 0.00 | 87 | 1014.4 |
| 20260831150011 | 13 | 9 | 3.2 | 4.8 | 0.00 | 0.00 | 0.00 | 87 | 1014.3 |
| 20260831145507 | 13 | 9 | 1.6 | 4.8 | 0.00 | 0.00 | 0.00 | 88 | 1014.2 |
| 20260831145008 | 13 | 348 | 1.6 | 4.8 | 0.00 | 0.00 | 0.00 | 88 | 1014.2 |
| 20260831144513 | 13 | 13 | 0.0 | 3.2 | 0.00 | 0.00 | 0.00 | 88 | 1014.0 |
| 20260831144009 | 13 | 352 | 0.0 | 3.2 | 0.00 | 0.00 | 0.00 | 89 | 1014.0 |
| 20260831143512 | 13 | 9 | 0.0 | 3.2 | 0.00 | 0.00 | 0.00 | 89 | 1014.0 |
| 20260831143017 | 13 | 17 | 0.0 | 0.0 | 0.00 | 0.00 | 0.00 | 89 | 1014.1 |
| 20260831142511 | 13 | 28 | 0.0 | 6.4 | 0.00 | 0.00 | 0.00 | 90 | 1014.0 |
| 20260831142008 | 12 | 28 | 0.0 | 6.4 | 0.00 | 0.00 | 0.00 | 90 | 1014.1 |
| 20260831141511 | 12 | 9 | 0.0 | 6.4 | 0.00 | 0.00 | 0.00 | 91 | 1014.2 |